When you browse on this site, cookies collect data to enhance your experience and personalize the content and advertising you see.
Visit our Privacy Policy to learn more. By continuing to use the site, you agree to this use of cookies and data.
  • In Romania
  • List of Countries
  • For 7 days
  • Water Temperature
  • Satellite Maps
  • Weather Map
  • Weather Widgets
  • user-avatar
    Login

    Hourly Weather Arbela

    Today, 24 March, Sunday

    Time Temperature Precipitation Wind Pressure Humidity
    00:00 +13°C° 0 mm 2 mps 724 mmHg 56%
    01:00 +12°C° 0 mm 2 mps 723 mmHg 57%
    02:00 +11°C° 0 mm 3 mps 723 mmHg 58%
    03:00 +11°C° 0 mm 3 mps 722 mmHg 58%
    04:00 +11°C° 0 mm 3 mps 722 mmHg 57%
    05:00 +10°C° 0 mm 3 mps 722 mmHg 56%
    06:00 +10°C° 0 mm 4 mps 722 mmHg 55%
    07:00 +12°C° 0 mm 4 mps 721 mmHg 51%
    08:00 +14°C° 0 mm 5 mps 721 mmHg 46%
    09:00 +16°C° 0 mm 6 mps 721 mmHg 42%
    10:00 +15°C° 0.7 mm 6 mps 720 mmHg 51%
    11:00 +14°C° 0.7 mm 7 mps 719 mmHg 60%
    12:00 +12°C° 0.7 mm 7 mps 719 mmHg 69%
    13:00 +14°C° 0.2 mm 7 mps 718 mmHg 64%
    14:00 +16°C° 0.2 mm 7 mps 717 mmHg 59%
    15:00 +17°C° 0.2 mm 7 mps 717 mmHg 54%
    16:00 +16°C° 0.6 mm 7 mps 716 mmHg 60%
    17:00 +15°C° 0.6 mm 6 mps 716 mmHg 66%
    18:00 +14°C° 0.6 mm 6 mps 715 mmHg 73%
    19:00 +14°C° 0.1 mm 6 mps 715 mmHg 74%
    20:00 +13°C° 0.1 mm 5 mps 715 mmHg 76%
    21:00 +13°C° 0.1 mm 4 mps 715 mmHg 78%
    22:00 +13°C° 1 mm 5 mps 715 mmHg 82%
    23:00 +13°C° 1 mm 5 mps 715 mmHg 85%

    Tomorrow, 25 March, Monday

    Time Temperature Precipitation Wind Pressure Humidity
    00:00 +13°C° 1 mm 5 mps 714 mmHg 88%
    01:00 +13°C° 3.3 mm 5 mps 714 mmHg 87%
    02:00 +13°C° 3.3 mm 5 mps 713 mmHg 86%
    03:00 +13°C° 3.3 mm 6 mps 712 mmHg 85%
    04:00 +13°C° 1.9 mm 5 mps 712 mmHg 86%
    05:00 +13°C° 1.9 mm 5 mps 711 mmHg 87%
    06:00 +13°C° 1.9 mm 5 mps 711 mmHg 87%
    07:00 +13°C° 4.2 mm 4 mps 711 mmHg 88%
    08:00 +13°C° 4.2 mm 4 mps 711 mmHg 89%
    09:00 +13°C° 4.2 mm 3 mps 711 mmHg 90%
    10:00 +13°C° 4.4 mm 4 mps 712 mmHg 90%
    11:00 +13°C° 4.4 mm 5 mps 712 mmHg 89%
    12:00 +13°C° 4.4 mm 6 mps 713 mmHg 89%
    13:00 +14°C° 2.1 mm 5 mps 713 mmHg 86%
    14:00 +14°C° 2.1 mm 5 mps 714 mmHg 84%
    15:00 +15°C° 2.1 mm 5 mps 715 mmHg 81%
    16:00 +14°C° 1.1 mm 4 mps 715 mmHg 84%
    17:00 +13°C° 1.1 mm 3 mps 716 mmHg 87%
    18:00 +14°C° 1.1 mm 2 mps 717 mmHg 89%
    19:00 +13°C° 1.2 mm 2 mps 718 mmHg 91%
    20:00 +12°C° 1.2 mm 1 mps 719 mmHg 92%
    21:00 +12°C° 1.2 mm 1 mps 720 mmHg 93%
    22:00 +11°C° 0.1 mm 1 mps 720 mmHg 93%
    23:00 +11°C° 0.1 mm 1 mps 720 mmHg 93%

    Day after tomorrow, 26 March, Tuesday

    Time Temperature Precipitation Wind Pressure Humidity
    00:00 +10°C° 0.1 mm 1 mps 721 mmHg 92%
    01:00 +10°C° 0 mm 2 mps 721 mmHg 89%
    02:00 +10°C° 0 mm 3 mps 721 mmHg 86%
    03:00 +10°C° 0 mm 3 mps 720 mmHg 83%
    04:00 +10°C° 0 mm 3 mps 721 mmHg 81%
    05:00 +9°C° 0 mm 2 mps 721 mmHg 79%
    06:00 +9°C° 0 mm 2 mps 721 mmHg 77%
    07:00 +12°C° 0 mm 2 mps 721 mmHg 70%
    08:00 +14°C° 0 mm 2 mps 721 mmHg 64%
    09:00 +15°C° 0 mm 1 mps 722 mmHg 58%
    10:00 +17°C° 0 mm 2 mps 721 mmHg 54%
    11:00 +18°C° 0 mm 3 mps 721 mmHg 50%
    12:00 +19°C° 0 mm 3 mps 720 mmHg 47%
    13:00 +20°C° 0 mm 3 mps 720 mmHg 45%
    14:00 +20°C° 0 mm 3 mps 720 mmHg 44%
    15:00 +20°C° 0 mm 3 mps 719 mmHg 42%
    16:00 +19°C° 0.1 mm 3 mps 720 mmHg 50%
    17:00 +18°C° 0.1 mm 4 mps 720 mmHg 59%
    18:00 +15°C° 0.1 mm 4 mps 720 mmHg 67%
    19:00 +15°C° 0.3 mm 4 mps 721 mmHg 69%
    20:00 +14°C° 0.3 mm 3 mps 721 mmHg 72%
    21:00 +14°C° 0.3 mm 2 mps 722 mmHg 75%
    22:00 +14°C° 0 mm 2 mps 722 mmHg 75%
    23:00 +13°C° 0 mm 2 mps 722 mmHg 76%

    27 March, Wednesday

    Time Temperature Precipitation Wind Pressure Humidity
    00:00 +13°C° 0 mm 1 mps 722 mmHg 77%
    01:00 +12°C° 0 mm 2 mps 723 mmHg 78%
    02:00 +12°C° 0 mm 2 mps 723 mmHg 79%
    03:00 +12°C° 0 mm 2 mps 723 mmHg 80%
    04:00 +10°C° 0 mm 3 mps 724 mmHg 82%
    05:00 +10°C° 0 mm 3 mps 724 mmHg 84%
    06:00 +10°C° 0 mm 3 mps 725 mmHg 86%
    07:00 +10°C° 0 mm 4 mps 725 mmHg 84%
    08:00 +10°C° 0 mm 5 mps 726 mmHg 83%
    09:00 +11°C° 0 mm 6 mps 727 mmHg 82%
    10:00 +13°C° 0.1 mm 6 mps 727 mmHg 76%
    11:00 +14°C° 0.1 mm 6 mps 727 mmHg 71%
    12:00 +15°C° 0.1 mm 6 mps 727 mmHg 65%
    13:00 +16°C° 0.7 mm 5 mps 727 mmHg 65%
    14:00 +16°C° 0.7 mm 5 mps 727 mmHg 64%
    15:00 +17°C° 0.7 mm 4 mps 727 mmHg 63%
    16:00 +16°C° 0.8 mm 3 mps 727 mmHg 67%
    17:00 +14°C° 0.8 mm 3 mps 727 mmHg 71%
    18:00 +15°C° 0.8 mm 2 mps 727 mmHg 74%
    19:00 +14°C° 0.6 mm 2 mps 727 mmHg 77%
    20:00 +13°C° 0.6 mm 2 mps 728 mmHg 79%
    21:00 +13°C° 0.6 mm 2 mps 728 mmHg 81%
    22:00 +13°C° 0.6 mm 2 mps 728 mmHg 82%
    23:00 +13°C° 0.6 mm 2 mps 728 mmHg 82%

    28 March, Thursday

    Time Temperature Precipitation Wind Pressure Humidity
    00:00 +12°C° 0.6 mm 2 mps 728 mmHg 82%
    01:00 +12°C° 0.3 mm 2 mps 727 mmHg 82%
    02:00 +12°C° 0.3 mm 2 mps 727 mmHg 82%
    03:00 +12°C° 0.3 mm 2 mps 727 mmHg 82%
    04:00 +12°C° 0.2 mm 2 mps 727 mmHg 83%
    05:00 +12°C° 0.2 mm 2 mps 727 mmHg 83%
    06:00 +10°C° 0.2 mm 2 mps 727 mmHg 83%
    07:00 +12°C° 0.2 mm 1 mps 728 mmHg 80%
    08:00 +13°C° 0.2 mm 1 mps 728 mmHg 77%
    09:00 +13°C° 0.2 mm 1 mps 728 mmHg 74%
    10:00 +14°C° 0.4 mm 2 mps 728 mmHg 70%
    11:00 +15°C° 0.4 mm 2 mps 728 mmHg 67%
    12:00 +16°C° 0.4 mm 3 mps 727 mmHg 63%
    13:00 +16°C° 1.7 mm 3 mps 727 mmHg 64%
    14:00 +16°C° 1.7 mm 3 mps 726 mmHg 64%
    15:00 +17°C° 1.7 mm 2 mps 726 mmHg 64%
    16:00 +16°C° 1.4 mm 2 mps 726 mmHg 69%
    17:00 +15°C° 1.4 mm 2 mps 726 mmHg 73%
    18:00 +14°C° 1.4 mm 2 mps 726 mmHg 78%
    19:00 +13°C° 0 mm 2 mps 726 mmHg 79%
    20:00 +13°C° 0 mm 2 mps 727 mmHg 79%
    21:00 +12°C° 0 mm 2 mps 727 mmHg 80%
    22:00 +12°C° 0 mm 2 mps 727 mmHg 80%
    23:00 +10°C° 0 mm 2 mps 727 mmHg 79%

    29 March, Friday

    Time Temperature Precipitation Wind Pressure Humidity
    00:00 +10°C° 0 mm 2 mps 727 mmHg 78%
    01:00 +10°C° 0 mm 2 mps 727 mmHg 78%
    02:00 +10°C° 0 mm 2 mps 727 mmHg 77%
    03:00 +11°C° 0 mm 1 mps 727 mmHg 77%
    04:00 +10°C° 0 mm 2 mps 727 mmHg 77%
    05:00 +9°C° 0 mm 2 mps 727 mmHg 77%
    06:00 +9°C° 0 mm 2 mps 727 mmHg 76%
    07:00 +12°C° 0 mm 2 mps 727 mmHg 72%
    08:00 +14°C° 0 mm 2 mps 727 mmHg 67%
    09:00 +15°C° 0 mm 2 mps 728 mmHg 62%
    10:00 +16°C° 0.1 mm 2 mps 727 mmHg 58%
    11:00 +17°C° 0.1 mm 2 mps 727 mmHg 55%
    12:00 +18°C° 0.1 mm 2 mps 727 mmHg 51%
    13:00 +18°C° 0.2 mm 2 mps 727 mmHg 50%
    14:00 +20°C° 0.2 mm 1 mps 726 mmHg 48%
    15:00 +20°C° 0.2 mm 1 mps 726 mmHg 46%
    16:00 +19°C° 0.2 mm 1 mps 726 mmHg 53%
    17:00 +18°C° 0.2 mm 1 mps 726 mmHg 60%
    18:00 +16°C° 0.2 mm 1 mps 726 mmHg 67%
    19:00 +15°C° 0.1 mm 1 mps 726 mmHg 67%
    20:00 +15°C° 0.1 mm 2 mps 726 mmHg 68%
    21:00 +14°C° 0.1 mm 2 mps 726 mmHg 68%
    22:00 +14°C° 0 mm 2 mps 726 mmHg 68%
    23:00 +14°C° 0 mm 2 mps 726 mmHg 68%
    Show more